Find HEAD-2E

NORAD ID: 49319 Int'l Des: NNA 2021-091 Owner: HEAD Country: CN operational
LEOCIRCULARRETROGRADE

リアルタイム位置

3D地球を読み込み中...

HEAD-2Eについて

説明を読み込み中...

次回通過

Passes for default location (London). Set your location on the main map for personalized predictions.

高度履歴

Loading altitude history...

軌道要素

1 49319U 21091E 26105.96475741 .00019459 00000-0 23402-3 0 9998
2 49319 97.3890 324.1079 0006460 164.2568 195.8892 15.60866744251634
Epoch: Apr 15, 2026 • Age: 9 hours

現在のステータス

高度 391.3 km
速度 7.67 km/s
衛星直下点 11.05°N, 7.93°W
打ち上げ日 Oct 14, 2021
運用期間 4.5 years
タイプ other

技術仕様

分類 Payload
質量 45.00 kg
乾燥質量 45.00 kg
総質量 45.00 kg
長さ 0.50 m
直径 0.20 m
スパン 2.00 m
形状 Box + 2 Pan
製造者 SAST
バスタイプ HEAD-1
フェーズステータス In Orbit
所有者/国 HEAD/CN

Most Searched